When you browse on this site, cookies collect data to enhance your experience and personalize the content and advertising you see.
Visit our Privacy Policy to learn more. By continuing to use the site, you agree to this use of cookies and data.

Previsão horária em Calguri

Hoje, 15 Agosto, Sábado

Tempo Temperatura Precipitação Vento Pressão Humidade
00:00 +12°C° 0 mm 1 m/s 730 mmHg 62%
01:00 +11°C° 0 mm 1 m/s 730 mmHg 65%
02:00 +11°C° 0 mm 1 m/s 730 mmHg 68%
03:00 +10°C° 0 mm 1 m/s 730 mmHg 67%
04:00 +10°C° 0 mm 1 m/s 730 mmHg 67%
05:00 +10°C° 0 mm 1 m/s 729 mmHg 67%
06:00 +10°C° 0 mm 2 m/s 730 mmHg 62%
07:00 +11°C° 0 mm 3 m/s 730 mmHg 57%
08:00 +12°C° 0 mm 4 m/s 730 mmHg 51%
09:00 +14°C° 0 mm 5 m/s 730 mmHg 46%
10:00 +16°C° 0 mm 6 m/s 730 mmHg 40%
11:00 +19°C° 0 mm 6 m/s 729 mmHg 34%
12:00 +20°C° 0 mm 7 m/s 729 mmHg 31%
13:00 +21°C° 0 mm 7 m/s 728 mmHg 28%
14:00 +22°C° 0 mm 7 m/s 727 mmHg 25%
15:00 +21°C° 0 mm 6 m/s 727 mmHg 27%
16:00 +21°C° 0 mm 5 m/s 726 mmHg 28%
17:00 +20°C° 0 mm 4 m/s 726 mmHg 29%
18:00 +19°C° 0 mm 4 m/s 726 mmHg 29%
19:00 +18°C° 0 mm 4 m/s 726 mmHg 30%
20:00 +18°C° 0 mm 4 m/s 726 mmHg 30%
21:00 +16°C° 0 mm 5 m/s 725 mmHg 30%
22:00 +16°C° 0 mm 5 m/s 725 mmHg 30%
23:00 +16°C° 0 mm 6 m/s 724 mmHg 30%

Amanhã, 16 Agosto, Domingo

Tempo Temperatura Precipitação Vento Pressão Humidade
00:00 +15°C° 0 mm 6 m/s 724 mmHg 31%
01:00 +15°C° 0 mm 6 m/s 723 mmHg 33%
02:00 +15°C° 0 mm 5 m/s 723 mmHg 34%
03:00 +15°C° 0 mm 5 m/s 722 mmHg 39%
04:00 +15°C° 0 mm 5 m/s 722 mmHg 44%
05:00 +15°C° 0 mm 5 m/s 722 mmHg 49%
06:00 +14°C° 0.2 mm 7 m/s 722 mmHg 60%
07:00 +13°C° 0.2 mm 9 m/s 722 mmHg 70%
08:00 +13°C° 0.2 mm 11 m/s 722 mmHg 80%
09:00 +13°C° 0.6 mm 11 m/s 722 mmHg 71%
10:00 +14°C° 0.6 mm 11 m/s 722 mmHg 63%
11:00 +15°C° 0.6 mm 12 m/s 722 mmHg 54%
12:00 +17°C° 0 mm 12 m/s 722 mmHg 48%
13:00 +17°C° 0 mm 13 m/s 722 mmHg 43%
14:00 +17°C° 0 mm 13 m/s 722 mmHg 37%
15:00 +15°C° 0 mm 12 m/s 722 mmHg 40%
16:00 +14°C° 0 mm 11 m/s 723 mmHg 44%
17:00 +13°C° 0 mm 10 m/s 723 mmHg 47%
18:00 +12°C° 0 mm 9 m/s 724 mmHg 51%
19:00 +11°C° 0 mm 8 m/s 724 mmHg 54%
20:00 +10°C° 0 mm 6 m/s 725 mmHg 58%
21:00 +10°C° 0 mm 7 m/s 725 mmHg 61%
22:00 +9°C° 0 mm 7 m/s 726 mmHg 64%
23:00 +8°C° 0 mm 7 m/s 726 mmHg 67%

Depois de amanhã, 17 Agosto, Segunda-feira

Tempo Temperatura Precipitação Vento Pressão Humidade
00:00 +8°C° 0 mm 7 m/s 726 mmHg 70%
01:00 +6°C° 0 mm 7 m/s 726 mmHg 72%
02:00 +6°C° 0 mm 7 m/s 726 mmHg 74%
03:00 +6°C° 0 mm 7 m/s 726 mmHg 75%
04:00 +5°C° 0 mm 7 m/s 726 mmHg 76%
05:00 +5°C° 0 mm 7 m/s 726 mmHg 77%
06:00 +6°C° 0 mm 8 m/s 727 mmHg 74%
07:00 +6°C° 0 mm 8 m/s 727 mmHg 71%
08:00 +7°C° 0 mm 9 m/s 727 mmHg 68%
09:00 +8°C° 0 mm 9 m/s 727 mmHg 65%
10:00 +8°C° 0 mm 9 m/s 728 mmHg 63%
11:00 +10°C° 0 mm 8 m/s 728 mmHg 60%
12:00 +11°C° 0 mm 9 m/s 727 mmHg 56%
13:00 +12°C° 0 mm 9 m/s 727 mmHg 52%
14:00 +12°C° 0 mm 10 m/s 727 mmHg 47%
15:00 +12°C° 0 mm 10 m/s 727 mmHg 49%
16:00 +12°C° 0 mm 9 m/s 727 mmHg 50%
17:00 +11°C° 0 mm 9 m/s 727 mmHg 52%
18:00 +10°C° 0 mm 8 m/s 728 mmHg 55%
19:00 +10°C° 0 mm 6 m/s 728 mmHg 58%
20:00 +9°C° 0 mm 5 m/s 728 mmHg 60%
21:00 +8°C° 0 mm 5 m/s 729 mmHg 63%
22:00 +8°C° 0 mm 5 m/s 729 mmHg 65%
23:00 +7°C° 0 mm 5 m/s 729 mmHg 68%

18 Agosto, Terça-feira

Tempo Temperatura Precipitação Vento Pressão Humidade
00:00 +7°C° 0 mm 5 m/s 729 mmHg 72%
01:00 +6°C° 0 mm 5 m/s 729 mmHg 77%
02:00 +6°C° 0 mm 5 m/s 728 mmHg 82%
03:00 +6°C° 0 mm 5 m/s 729 mmHg 83%
04:00 +5°C° 0 mm 5 m/s 729 mmHg 85%
05:00 +5°C° 0 mm 5 m/s 729 mmHg 86%
06:00 +4°C° 0 mm 6 m/s 730 mmHg 81%
07:00 +5°C° 0 mm 7 m/s 730 mmHg 77%
08:00 +5°C° 0 mm 8 m/s 730 mmHg 72%
09:00 +7°C° 0 mm 8 m/s 730 mmHg 65%
10:00 +10°C° 0 mm 8 m/s 731 mmHg 58%
11:00 +11°C° 0 mm 8 m/s 731 mmHg 50%
12:00 +12°C° 0 mm 8 m/s 730 mmHg 47%
13:00 +13°C° 0 mm 8 m/s 730 mmHg 44%
14:00 +15°C° 0 mm 7 m/s 729 mmHg 41%
15:00 +15°C° 0 mm 7 m/s 730 mmHg 43%
16:00 +14°C° 0 mm 6 m/s 730 mmHg 45%
17:00 +14°C° 0 mm 6 m/s 730 mmHg 47%
18:00 +13°C° 0 mm 5 m/s 730 mmHg 51%
19:00 +12°C° 0 mm 5 m/s 731 mmHg 56%
20:00 +11°C° 0 mm 4 m/s 731 mmHg 60%
21:00 +10°C° 0 mm 4 m/s 731 mmHg 63%
22:00 +10°C° 0 mm 3 m/s 732 mmHg 65%
23:00 +9°C° 0 mm 3 m/s 732 mmHg 67%

19 Agosto, Quarta-feira

Tempo Temperatura Precipitação Vento Pressão Humidade
00:00 +9°C° 0 mm 3 m/s 732 mmHg 68%
01:00 +8°C° 0 mm 2 m/s 731 mmHg 70%
02:00 +8°C° 0 mm 2 m/s 731 mmHg 72%
03:00 +8°C° 0 mm 2 m/s 731 mmHg 72%
04:00 +8°C° 0 mm 2 m/s 731 mmHg 72%
05:00 +8°C° 0 mm 2 m/s 731 mmHg 72%
06:00 +8°C° 0 mm 2 m/s 732 mmHg 70%
07:00 +8°C° 0 mm 2 m/s 732 mmHg 68%
08:00 +9°C° 0 mm 2 m/s 733 mmHg 66%
09:00 +11°C° 0 mm 1 m/s 733 mmHg 61%
10:00 +12°C° 0 mm 1 m/s 733 mmHg 56%
11:00 +12°C° 0 mm 0 m/s 733 mmHg 51%
12:00 +13°C° 0 mm 0 m/s 732 mmHg 48%
13:00 +13°C° 0 mm 0 m/s 732 mmHg 44%
14:00 +14°C° 0 mm 0 m/s 731 mmHg 40%
15:00 +14°C° 0 mm 0 m/s 731 mmHg 40%
16:00 +15°C° 0 mm 1 m/s 731 mmHg 40%
17:00 +15°C° 0 mm 1 m/s 731 mmHg 40%
18:00 +14°C° 0 mm 1 m/s 732 mmHg 44%
19:00 +13°C° 0 mm 1 m/s 732 mmHg 48%
20:00 +12°C° 0 mm 1 m/s 732 mmHg 52%
21:00 +12°C° 0 mm 1 m/s 732 mmHg 51%
22:00 +12°C° 0 mm 1 m/s 732 mmHg 51%
23:00 +12°C° 0 mm 2 m/s 733 mmHg 50%

20 Agosto, Quinta-feira

Tempo Temperatura Precipitação Vento Pressão Humidade
00:00 +12°C° 0 mm 2 m/s 732 mmHg 50%
01:00 +12°C° 0 mm 2 m/s 732 mmHg 49%
02:00 +12°C° 0 mm 2 m/s 732 mmHg 48%
03:00 +12°C° 0 mm 2 m/s 732 mmHg 49%
04:00 +10°C° 0 mm 2 m/s 732 mmHg 49%
05:00 +10°C° 0 mm 3 m/s 732 mmHg 49%
06:00 +11°C° 0 mm 3 m/s 732 mmHg 48%
07:00 +11°C° 0 mm 3 m/s 733 mmHg 47%
08:00 +12°C° 0 mm 4 m/s 733 mmHg 46%
09:00 +13°C° 0 mm 4 m/s 733 mmHg 42%
10:00 +15°C° 0 mm 4 m/s 733 mmHg 39%
11:00 +17°C° 0 mm 5 m/s 733 mmHg 35%
12:00 +18°C° 0 mm 4 m/s 732 mmHg 33%
13:00 +19°C° 0 mm 4 m/s 731 mmHg 32%
14:00 +20°C° 0 mm 4 m/s 731 mmHg 31%
15:00 +19°C° 0 mm 3 m/s 731 mmHg 33%
16:00 +19°C° 0 mm 2 m/s 730 mmHg 36%
17:00 +20°C° 0 mm 1 m/s 730 mmHg 39%
18:00 +18°C° 0 mm 2 m/s 731 mmHg 39%
19:00 +17°C° 0 mm 3 m/s 731 mmHg 39%
20:00 +15°C° 0 mm 4 m/s 731 mmHg 40%
21:00 +15°C° 0 mm 4 m/s 731 mmHg 41%
22:00 +14°C° 0 mm 4 m/s 731 mmHg 43%
23:00 +13°C° 0 mm 4 m/s 732 mmHg 44%
Mostrar mais